Weather History for Delaware, OH

Change the Weather History Date:

Monday, March 11, 2013

  Actual Average Record
Temperature  
Mean Temperature 48 °F -  
Max Temperature 59 °F 46 °F 74 °F (1973)
Min Temperature 37 °F 25 °F 4 °F (1960)
Degree Days  
Heating Degree Days 17    
Moisture  
Dew Point 41 °F    
Average Humidity 76    
Maximum Humidity 93    
Minimum Humidity 39    
Precipitation  
Precipitation 0.65 in - - ()
Sea Level Pressure  
Sea Level Pressure 29.76 in    
Wind  
Wind Speed 11 mph (South)    
Max Wind Speed 25 mph    
Max Gust Speed 34 mph    
Visibility 9 miles    
Events Rain    
Averages and records for this station are not official NWS values.
T = Trace of Precipitation, MM = Missing Value Source: NWS Daily Summary

Daily Weather History Graph

Daily Weather History Graph

Search for Another Location

Airport:

Trip Planner

Search our weather history database for the weather conditions in past years. The results will help you decide how hot, cold, wet, or windy it might be!

Date:

Astronomy

Mar. 11, 2013 Rise Set
Actual Time 7:50 AM EDT 7:35 PM EDT
Civil Twilight 7:22 AM EDT 8:02 PM EDT
Nautical Twilight 6:51 AM EDT 8:33 PM EDT
Astronomical Twilight 6:19 AM EDT 9:05 PM EDT
Moon 7:23 AM EDT (3/11) 7:46 PM EDT (3/11)
Length of Visible Light 12h 39m
Length of Day
11h 45m
Waning Crescent, 0% of the Moon is Illuminated
Mar 11
Waning Crescent
Mar 11
New
Mar 19
First Quarter
Mar 27
Full
Apr 3
Last Quarter

Hourly Weather History & Observations

Time (EDT) Temp. Windchill Dew Point Humidity Pressure Visibility Wind Dir Wind Speed Gust Speed Precip Events Conditions
12:15 AM 55.4 °F - 35.6 °F 47% 29.87 in 10.0 mi SSE 9.2 mph - N/A   Mostly Cloudy
12:34 AM 57.2 °F - 35.6 °F 44% 29.86 in 10.0 mi South 8.1 mph - N/A   Mostly Cloudy
12:54 AM 59.0 °F - 33.8 °F 39% 29.86 in 10.0 mi South 9.2 mph - N/A   Overcast
1:15 AM 57.2 °F - 35.6 °F 44% 29.87 in 10.0 mi South 13.8 mph 19.6 mph N/A   Overcast
1:34 AM 57.2 °F - 35.6 °F 44% 29.85 in 10.0 mi South 8.1 mph 12.7 mph N/A   Light Drizzle
1:54 AM 53.6 °F - 37.4 °F 54% 29.85 in 10.0 mi SSE 8.1 mph - N/A Rain Light Rain
2:15 AM 53.6 °F - 37.4 °F 54% 29.86 in 10.0 mi South 8.1 mph - N/A   Overcast
2:34 AM 53.6 °F - 37.4 °F 54% 29.85 in 10.0 mi SSW 5.8 mph - N/A   Mostly Cloudy
2:54 AM 53.6 °F - 37.4 °F 54% 29.84 in 10.0 mi SSW 3.5 mph - N/A Rain Light Rain
3:14 AM 53.6 °F - 39.2 °F 58% 29.85 in 10.0 mi WSW 6.9 mph - N/A Rain Light Rain
3:34 AM 53.6 °F - 39.2 °F 58% 29.84 in 10.0 mi SW 4.6 mph - N/A Rain Rain
3:54 AM 51.8 °F - 41.0 °F 67% 29.85 in 10.0 mi South 8.1 mph - N/A Rain Light Rain
4:14 AM 50.0 °F - 42.8 °F 76% 29.84 in 10.0 mi SSW 8.1 mph - 0.03 in Rain Rain
4:34 AM 50.0 °F - 42.8 °F 76% 29.85 in 7.0 mi South 10.4 mph - 0.07 in Rain Rain
4:54 AM 50.0 °F - 42.8 °F 76% 29.84 in 7.0 mi South 9.2 mph - 0.11 in Rain Rain
5:14 AM 48.2 °F - 44.6 °F 87% 29.83 in 10.0 mi SSE 8.1 mph - 0.01 in Rain Rain
5:34 AM 48.2 °F - 44.6 °F 87% 29.83 in 10.0 mi SSE 9.2 mph - 0.03 in Rain Light Rain
5:54 AM 48.2 °F - 44.6 °F 87% 29.83 in 10.0 mi SSE 11.5 mph - 0.04 in Rain Light Rain
6:14 AM 48.2 °F - 44.6 °F 87% 29.85 in 7.0 mi South 9.2 mph - 0.03 in Rain Rain
6:34 AM 46.4 °F 41.9 °F 44.6 °F 93% 29.85 in 7.0 mi SSE 9.2 mph - 0.08 in Rain Rain
6:54 AM 48.2 °F - 44.6 °F 87% 29.84 in 10.0 mi South 6.9 mph - 0.12 in Rain Rain
7:14 AM 46.4 °F 44.3 °F 44.6 °F 93% 29.85 in 10.0 mi South 4.6 mph - N/A Rain Rain
7:34 AM 46.4 °F 44.3 °F 44.6 °F 93% 29.84 in 7.0 mi SE 4.6 mph - 0.03 in Rain Rain
7:55 AM 46.4 °F 43.5 °F 44.6 °F 93% 29.83 in 7.0 mi ESE 5.8 mph - 0.06 in Rain Rain
8:14 AM 46.4 °F 45.2 °F 44.6 °F 93% 29.80 in 10.0 mi East 3.5 mph - 0.02 in Rain Light Rain
8:34 AM 46.4 °F - 44.6 °F 93% 29.82 in 10.0 mi Calm Calm - 0.03 in Rain Light Rain
8:55 AM 46.4 °F - 44.6 °F 93% 29.83 in 7.0 mi Calm Calm - 0.04 in Rain Light Rain
9:14 AM 46.4 °F 45.2 °F 44.6 °F 93% 29.83 in 4.0 mi SE 3.5 mph - 0.03 in Rain Rain
9:34 AM 46.4 °F 42.9 °F 44.6 °F 93% 29.82 in 5.0 mi SE 6.9 mph - 0.07 in Rain Rain
9:55 AM 46.4 °F 41.5 °F 42.8 °F 87% 29.82 in 10.0 mi SE 10.4 mph - 0.09 in Rain Light Rain
10:14 AM 48.2 °F - 42.8 °F 82% 29.81 in 10.0 mi SSE 12.7 mph - N/A   Light Drizzle
10:34 AM 48.2 °F - 42.8 °F 82% 29.79 in 10.0 mi SSE 12.7 mph - 0.01 in Rain Rain
10:55 AM 48.2 °F - 42.8 °F 82% 29.76 in 10.0 mi SSE 16.1 mph 21.9 mph 0.01 in   Light Drizzle
11:14 AM 50.0 °F - 42.8 °F 76% 29.76 in 10.0 mi SSE 16.1 mph 26.5 mph N/A   Mostly Cloudy
11:34 AM 50.0 °F - 42.8 °F 76% 29.72 in 10.0 mi SSE 19.6 mph 24.2 mph N/A   Mostly Cloudy
11:55 AM 50.0 °F - 42.8 °F 76% 29.72 in 10.0 mi SSE 17.3 mph 23.0 mph N/A   Drizzle
12:14 PM 50.0 °F - 42.8 °F 76% 29.71 in 10.0 mi SSE 16.1 mph 29.9 mph N/A   Overcast
12:34 PM 50.0 °F - 42.8 °F 76% 29.71 in 10.0 mi SSE 18.4 mph 23.0 mph N/A Rain Light Rain
12:54 PM 50.0 °F - 42.8 °F 76% 29.70 in 10.0 mi SSE 15.0 mph 25.3 mph N/A Rain Light Rain
1:14 PM 51.8 °F - 42.8 °F 71% 29.68 in 10.0 mi SSE 23.0 mph 27.6 mph N/A   Overcast
1:35 PM 51.8 °F - 42.8 °F 71% 29.66 in 10.0 mi South 19.6 mph 32.2 mph N/A   Overcast
1:54 PM 53.6 °F - 42.8 °F 67% 29.66 in 10.0 mi SSE 23.0 mph 34.5 mph N/A   Overcast
2:14 PM 51.8 °F - 44.6 °F 76% 29.65 in 10.0 mi SSE 19.6 mph 26.5 mph N/A   Light Drizzle
2:35 PM 51.8 °F - 44.6 °F 76% 29.63 in 10.0 mi SSE 18.4 mph 29.9 mph N/A Rain Light Rain
2:54 PM 51.8 °F - 46.4 °F 82% 29.61 in 10.0 mi SSE 21.9 mph 29.9 mph N/A Rain Light Rain
3:15 PM 51.8 °F - 46.4 °F 82% 29.59 in 10.0 mi SSE 25.3 mph 33.4 mph N/A   Light Drizzle
3:34 PM 51.8 °F - 46.4 °F 82% 29.58 in 7.0 mi South 19.6 mph 32.2 mph 0.01 in Rain Light Rain
3:55 PM 51.8 °F - 46.4 °F 82% 29.58 in 7.0 mi South 17.3 mph 28.8 mph 0.03 in Rain Light Rain
4:14 PM 53.6 °F - 46.4 °F 77% 29.58 in 10.0 mi South 19.6 mph 26.5 mph N/A Rain Light Rain
4:34 PM 51.8 °F - 46.4 °F 82% 29.61 in 4.0 mi WSW 18.4 mph 26.5 mph 0.05 in Rain Heavy Rain
4:55 PM 46.4 °F 41.1 °F 42.8 °F 87% 29.63 in 5.0 mi WSW 11.5 mph 25.3 mph 0.13 in Rain Rain
5:14 PM 46.4 °F 39.8 °F 42.8 °F 87% 29.63 in 5.0 mi WSW 16.1 mph 20.7 mph 0.01 in Rain Light Rain
5:34 PM 46.4 °F 40.7 °F 41.0 °F 81% 29.63 in 10.0 mi SW 12.7 mph 20.7 mph 0.02 in Rain Rain
5:55 PM 46.4 °F 41.9 °F 42.8 °F 87% 29.63 in 10.0 mi SW 9.2 mph - 0.02 in   Overcast
6:14 PM 46.4 °F 40.1 °F 41.0 °F 81% 29.65 in 10.0 mi SW 15.0 mph 18.4 mph N/A   Overcast
6:34 PM 46.4 °F 40.7 °F 41.0 °F 81% 29.65 in 10.0 mi SW 12.7 mph - N/A   Overcast
6:55 PM 46.4 °F 41.1 °F 41.0 °F 81% 29.65 in 10.0 mi WSW 11.5 mph 16.1 mph N/A   Overcast
7:14 PM 46.4 °F 41.5 °F 41.0 °F 81% 29.66 in 10.0 mi West 10.4 mph - N/A   Overcast
7:34 PM 44.6 °F 37.4 °F 39.2 °F 81% 29.68 in 10.0 mi West 16.1 mph 23.0 mph N/A   Overcast
7:55 PM 44.6 °F 39.2 °F 37.4 °F 76% 29.70 in 10.0 mi West 10.4 mph 17.3 mph N/A   Overcast
8:14 PM 42.8 °F 35.1 °F 35.6 °F 76% 29.72 in 10.0 mi West 16.1 mph 23.0 mph N/A   Overcast
8:34 PM 42.8 °F 36.6 °F 33.8 °F 70% 29.74 in 10.0 mi WSW 11.5 mph 24.2 mph N/A   Overcast
8:55 PM 42.8 °F 35.4 °F 33.8 °F 70% 29.73 in 10.0 mi West 15.0 mph 20.7 mph N/A   Mostly Cloudy
9:14 PM 41.0 °F 35.2 °F 33.8 °F 76% 29.75 in 10.0 mi WSW 9.2 mph 19.6 mph N/A   Mostly Cloudy
9:34 PM 41.0 °F 34.3 °F 33.8 °F 76% 29.76 in 10.0 mi WSW 11.5 mph - N/A   Overcast
9:55 PM 41.0 °F 36.4 °F 33.8 °F 76% 29.76 in 10.0 mi West 6.9 mph 18.4 mph N/A   Overcast
10:34 PM 41.0 °F 34.3 °F 32.0 °F 70% 29.78 in 10.0 mi WSW 11.5 mph 16.1 mph N/A   Overcast
10:55 PM 41.0 °F 33.9 °F 33.8 °F 76% 29.80 in 10.0 mi WSW 12.7 mph 16.1 mph N/A   Overcast
11:14 PM 39.2 °F 31.6 °F 32.0 °F 75% 29.80 in 10.0 mi West 12.7 mph 18.4 mph N/A   Overcast
11:34 PM 37.4 °F 29.8 °F 32.0 °F 81% 29.80 in 10.0 mi WSW 11.5 mph 16.1 mph N/A   Overcast
11:55 PM 37.4 °F 30.3 °F 32.0 °F 81% 29.80 in 10.0 mi West 10.4 mph 18.4 mph N/A   Overcast